TimePDT,TemperatureF,Dew PointF,Humidity,Sea Level PressureIn,VisibilityMPH,Wind Direction,Wind SpeedMPH,Gust SpeedMPH,PrecipitationIn,Events,Conditions,WindDirDegrees,DateUTC
12:53 AM,54.0,37.0,53,29.87,10.0,Calm,Calm,-,N/A,,Clear,0,2013-07-07 07:53:00
1:53 AM,53.1,37.0,55,29.87,10.0,Calm,Calm,-,N/A,,Clear,0,2013-07-07 08:53:00
2:53 AM,51.1,37.0,59,29.87,10.0,Calm,Calm,-,N/A,,Clear,0,2013-07-07 09:53:00
3:53 AM,50.0,36.0,59,29.88,10.0,Calm,Calm,-,N/A,,Clear,0,2013-07-07 10:53:00
4:53 AM,50.0,36.0,59,29.88,10.0,Calm,Calm,-,N/A,,Clear,0,2013-07-07 11:53:00
5:53 AM,46.9,35.1,63,29.91,10.0,Calm,Calm,-,N/A,,Clear,0,2013-07-07 12:53:00
6:53 AM,50.0,35.1,57,29.91,10.0,Calm,Calm,-,N/A,,Clear,0,2013-07-07 13:53:00
7:53 AM,60.1,39.0,46,29.90,10.0,Calm,Calm,-,N/A,,Clear,0,2013-07-07 14:53:00
8:53 AM,73.0,33.1,23,29.88,10.0,NE,3.5,-,N/A,,Clear,40,2013-07-07 15:53:00
9:53 AM,75.9,41.0,29,29.88,10.0,North,3.5,-,N/A,,Clear,10,2013-07-07 16:53:00
10:53 AM,78.1,39.9,25,29.90,10.0,Variable,3.5,-,N/A,,Clear,0,2013-07-07 17:53:00
11:53 AM,80.1,34.0,19,29.90,10.0,North,3.5,-,N/A,,Clear,10,2013-07-07 18:53:00
12:53 PM,82.0,28.0,14,29.90,10.0,SSW,11.5,18.4,N/A,,Clear,210,2013-07-07 19:53:00
1:53 PM,82.0,28.0,14,29.89,10.0,SW,12.7,20.7,N/A,,Clear,220,2013-07-07 20:53:00
2:53 PM,82.0,28.0,14,29.89,10.0,Variable,6.9,23.0,N/A,,Clear,0,2013-07-07 21:53:00
3:53 PM,81.0,30.9,16,29.90,10.0,SW,8.1,27.6,N/A,,Clear,220,2013-07-07 22:53:00
4:53 PM,80.1,32.0,17,29.90,10.0,SSW,9.2,19.6,N/A,,Clear,210,2013-07-07 23:53:00
5:53 PM,79.0,30.9,17,29.91,10.0,SW,9.2,-,N/A,,Clear,230,2013-07-08 00:53:00
6:53 PM,75.9,32.0,20,29.91,10.0,SSW,8.1,-,N/A,,Clear,210,2013-07-08 01:53:00
7:53 PM,73.0,34.0,24,29.90,10.0,SSW,3.5,-,N/A,,Clear,210,2013-07-08 02:53:00
8:53 PM,69.1,39.9,35,29.89,10.0,Variable,3.5,-,N/A,,Clear,0,2013-07-08 03:53:00
9:53 PM,61.0,39.9,46,29.93,10.0,Calm,Calm,-,N/A,,Clear,0,2013-07-08 04:53:00
10:53 PM,57.0,39.9,53,29.94,10.0,Calm,Calm,-,N/A,,Clear,0,2013-07-08 05:53:00
11:53 PM,55.9,37.9,51,29.94,10.0,Calm,Calm,-,N/A,,Clear,0,2013-07-08 06:53:00